Hourly Weather Roundup
Issued by NWS Central Illinois

Home | Current Version | Previous Version | Text Only | Print | Product List | Glossary On
Versions: 1 2 3 4 5 6 7 8 9 10 11 12 13 14 15 16 17 18 19 20 21 22 23 24 25 26 27 28 29 30 31 32 33 34 35 36 37 38 39 40 41 42 43 44 45 46 47 48 49 50
000
NZUS43 KILX 302018
HWRILX

AREA WEATHER ROUNDUP
NATIONAL WEATHER SERVICE, LINCOLN IL
300 PM CDT TUE JUN 30 2015


CITY           SKY/WX    TMP DP  RH WIND       PRES   REMARKS
BLOOMINGTON    MOSUNNY   81  64  55 W8        29.85F HX  82
CHAMPAIGN      PTSUNNY   80  67  64 W7G18     29.84S HX  82
DANVILLE       PTSUNNY   78  66  65 W8        29.80S HAZE    HX  80
DECATUR        PTSUNNY   82  66  58 W12       29.83F HX  84
EFFINGHAM      MOSUNNY   83  62  48 SW13G18   29.87S HX  84
FLORA          SUNNY     82  66  59 W10       29.86F HX  84
GALESBURG      MOSUNNY   80  65  60 N7        29.86S HX  82
JACKSONVILLE   SUNNY     83  69  63 W12G17    29.85S HX  86
LACON          SUNNY     79  63  57 N7        29.83S HX  81
LAWRENCEVILLE  SUNNY     83  67  58 W10       29.84S HX  85
LITCHFIELD     SUNNY     81  66  61 SW9G16    29.87S HX  83
$$


CITY           SKY/WX    TMP DP  RH WIND       PRES   REMARKS
LINCOLN        SUNNY     83  67  58 NW5       29.83F HX  86
MACOMB         PTSUNNY   80  67  64 NW9       29.87S HX  83
MATTOON        MOSUNNY   80  67  64 W8        29.83F HX  82
MT CARMEL AP   MOSUNNY   84  64  51 W13G18    29.84S HX  86
OLNEY-NOBLE AP MOSUNNY   81  68  65 W10       29.86S HX  83
PARIS          SUNNY     82  66  59 W12G17    29.83F HX  84
PEORIA         MOSUNNY   83  65  54 N7        29.84S HX  85
PONTIAC        MOSUNNY   80  66  63 NW8       29.84F HX  82
RANTOUL        MOSUNNY   82  66  58 W9        29.84S HX  84
ROBINSON       MOSUNNY   83  66  57 W8        29.84S HX  85
SPRINGFIELD    MOSUNNY   84  68  58 W15       29.84S HX  87
TAYLORVILLE    MOSUNNY   81  68  65 W8        29.84F HX  83
$$

...REGIONAL REPORTS...


CITY           SKY/WX    TMP DP  RH WIND       PRES   REMARKS
CHICAGO O`HARE PTSUNNY   76  59  55 NW9       29.81S
KANKAKEE       SUNNY     78  64  61 W10       29.83R HX  80
MOLINE         PTSUNNY   82  62  50 NW8       29.85R HX  83
MOUNT STERLING NOT AVBL
MOUNT VERNON   SUNNY     82  66  57 W6        29.88S HX  85
PITTSFIELD     SUNNY     82  66  58 W10       29.88R HX  84
QUINCY         SUNNY     81  67  62 NW12      29.87S HX  83
ROCKFORD       PTSUNNY   76  60  57 N10       29.86S
$$


CITY           SKY/WX    TMP DP  RH WIND       PRES   REMARKS
BURLINGTON     MOSUNNY   82  68  62 VRB7      29.85S HX  85
CEDAR RAPIDS   MOSUNNY   80  64  58 N9        29.86S HX  82
DES MOINES     CLOUDY    81  63  54 NW8       29.90S HX  82
KIRKSVILLE     MOSUNNY   80  66  62 W7        29.91S HX  82
OTTUMWA        MOSUNNY   80  67  64 N9        29.87S HX  82
ST LOUIS       MOSUNNY   85  67  54 W10G17    29.88S HX  87
$$


CITY           SKY/WX    TMP DP  RH WIND       PRES   REMARKS
TERRE HAUTE    SUNNY     83  65  54 W13G18    29.82F HX  85
EVANSVILLE     MOSUNNY   83  68  60 W10       29.86F HX  86
INDIANAPOLIS   PTSUNNY   80  62  54 W14       29.80F HX  81
LAFAYETTE      MOSUNNY   79  63  57 NW13      29.80S HX  80
MADISON        PTSUNNY   75  58  55 N8        29.84S
MILWAUKEE      PTSUNNY   63  58  83 NE20      29.83R
$$




USA.gov is the U.S. government's official web portal to all federal, state and local government web resources and services.